Location: Sunny Point
(33.0946°N, 85.0574°W)
Time: 08:26:18
(UTC+00:00)

CAS-6 - Visible Passes

Search period start: 24 July 2024 00:00
Search period end: 03 August 2024 00:00
Orbit: 607 x 627 km, 97.8° (Epoch: 23 July)

Date Brightness Start Highest point End Pass type
(mag) Time Alt. Az. Time Alt. Az. Time Alt. Az.
24 Jul ? 03:18:21 23° NE 03:18:21 23° NE 03:20:40 10° NNE visible
24 Jul ? 04:55:27 13° NW 04:55:27 13° NW 04:56:11 10° NW visible
25 Jul ? 03:34:55 29° NNE 03:34:55 29° NNE 03:37:21 10° N visible
26 Jul ? 03:51:30 31° N 03:51:30 31° N 03:53:51 10° N visible
27 Jul ? 04:08:05 28° NNW 04:08:05 28° NNW 04:10:10 10° NNW visible
28 Jul ? 02:47:33 12° NE 02:47:33 12° NE 02:48:26 10° NE visible
28 Jul ? 04:24:39 22° NW 04:24:39 22° NW 04:26:21 10° NNW visible
29 Jul ? 03:04:07 17° NE 03:04:07 17° NE 03:05:49 10° NNE visible
29 Jul ? 04:41:13 16° NW 04:41:13 16° NW 04:42:20 10° NW visible
30 Jul ? 03:20:41 22° NNE 03:20:41 22° NNE 03:22:40 10° NNE visible
30 Jul ? 04:57:48 11° NW 04:57:48 11° NW 04:58:01 10° NW visible
31 Jul ? 03:37:15 25° NNE 03:37:15 25° NNE 03:39:17 10° N visible
01 Aug ? 03:53:49 26° N 03:53:49 26° N 03:55:44 10° N visible
02 Aug ? 04:10:22 23° NNW 04:10:22 23° NNW 04:12:01 10° NNW visible
